Powrót do katalogu

GSAT 9

AktywnyŁącznośćGEO
NORAD 42695·PAYLOAD·🇮🇳 India

Wystrzelony May 5, 2017 z Satish Dhawan Space Centre

Loading…

TLE

ŚwieżeSource: Space-Track

Epoka: Sep 14, 2026, 14:15 UTC

1 42695U 17024A   26257.59442775 -.00000293  00000-0  00000-0 0  9990
2 42695   0.0298 112.9872 0002736  68.8553 122.9939  1.00267936 34196

Śledź GSAT 9 w czasie rzeczywistym z AllMySat

Download on the App Store